When you browse on this site, cookies collect data to enhance your experience and personalize the content and advertising you see.
Visit our Privacy Policy to learn more. By continuing to use the site, you agree to this use of cookies and data.
  • In Czech Republic
  • List of Countries
  • For 7 days
  • Water Temperature
  • Satellite Maps
  • Weather Map
  • Weather Widgets
  • user-avatar
    Login

    Hourly Weather Bolgatanga

    Today, 16 July, Tuesday

    Time Temperature Precipitation Wind Pressure Humidity
    00:00 +25°C° 0 mm 1 mps 741 mmHg 87%
    01:00 +25°C° 0 mm 1 mps 741 mmHg 89%
    02:00 +25°C° 0 mm 1 mps 741 mmHg 90%
    03:00 +25°C° 0 mm 1 mps 741 mmHg 92%
    04:00 +25°C° 0 mm 1 mps 741 mmHg 92%
    05:00 +25°C° 0 mm 1 mps 742 mmHg 93%
    06:00 +25°C° 0 mm 1 mps 742 mmHg 94%
    07:00 +26°C° 0.1 mm 2 mps 742 mmHg 89%
    08:00 +27°C° 0.1 mm 3 mps 743 mmHg 84%
    09:00 +28°C° 0.1 mm 4 mps 743 mmHg 80%
    10:00 +29°C° 0.1 mm 4 mps 743 mmHg 75%
    11:00 +30°C° 0.1 mm 4 mps 743 mmHg 71%
    12:00 +30°C° 0.1 mm 4 mps 743 mmHg 67%
    13:00 +31°C° 0.1 mm 3 mps 743 mmHg 65%
    14:00 +31°C° 0.1 mm 3 mps 742 mmHg 64%
    15:00 +31°C° 0.1 mm 3 mps 741 mmHg 62%
    16:00 +30°C° 0 mm 3 mps 741 mmHg 66%
    17:00 +29°C° 0 mm 3 mps 741 mmHg 70%
    18:00 +29°C° 0 mm 3 mps 741 mmHg 74%
    19:00 +28°C° 0 mm 3 mps 742 mmHg 76%
    20:00 +27°C° 0 mm 3 mps 742 mmHg 78%
    21:00 +27°C° 0 mm 3 mps 743 mmHg 80%
    22:00 +26°C° 0 mm 2 mps 743 mmHg 81%
    23:00 +26°C° 0 mm 2 mps 743 mmHg 82%

    Tomorrow, 17 July, Wednesday

    Time Temperature Precipitation Wind Pressure Humidity
    00:00 +26°C° 0 mm 1 mps 743 mmHg 82%
    01:00 +26°C° 0 mm 1 mps 743 mmHg 82%
    02:00 +25°C° 0 mm 1 mps 743 mmHg 83%
    03:00 +25°C° 0 mm 1 mps 743 mmHg 83%
    04:00 +25°C° 0 mm 1 mps 743 mmHg 83%
    05:00 +25°C° 0 mm 1 mps 744 mmHg 84%
    06:00 +25°C° 0 mm 1 mps 744 mmHg 85%
    07:00 +26°C° 0 mm 2 mps 744 mmHg 79%
    08:00 +28°C° 0 mm 3 mps 745 mmHg 73%
    09:00 +29°C° 0 mm 3 mps 745 mmHg 67%
    10:00 +31°C° 0 mm 3 mps 745 mmHg 62%
    11:00 +33°C° 0 mm 3 mps 744 mmHg 57%
    12:00 +34°C° 0 mm 4 mps 744 mmHg 52%
    13:00 +35°C° 0 mm 3 mps 743 mmHg 49%
    14:00 +36°C° 0 mm 3 mps 742 mmHg 47%
    15:00 +36°C° 0 mm 2 mps 741 mmHg 45%
    16:00 +37°C° 0 mm 3 mps 741 mmHg 41%
    17:00 +35°C° 0 mm 3 mps 741 mmHg 45%
    18:00 +34°C° 0 mm 3 mps 740 mmHg 49%
    19:00 +33°C° 0 mm 3 mps 741 mmHg 52%
    20:00 +31°C° 0 mm 2 mps 741 mmHg 56%
    21:00 +30°C° 0 mm 2 mps 742 mmHg 59%
    22:00 +30°C° 0.1 mm 2 mps 742 mmHg 63%
    23:00 +29°C° 0.1 mm 3 mps 742 mmHg 66%

    Day after tomorrow, 18 July, Thursday

    Time Temperature Precipitation Wind Pressure Humidity
    00:00 +29°C° 0.1 mm 3 mps 742 mmHg 69%
    01:00 +28°C° 0 mm 3 mps 742 mmHg 71%
    02:00 +28°C° 0 mm 3 mps 741 mmHg 73%
    03:00 +27°C° 0 mm 3 mps 741 mmHg 74%
    04:00 +27°C° 0.3 mm 2 mps 741 mmHg 77%
    05:00 +26°C° 0.3 mm 2 mps 742 mmHg 79%
    06:00 +26°C° 0.3 mm 2 mps 742 mmHg 81%
    07:00 +27°C° 0.2 mm 3 mps 742 mmHg 79%
    08:00 +28°C° 0.2 mm 3 mps 743 mmHg 76%
    09:00 +28°C° 0.2 mm 4 mps 743 mmHg 74%
    10:00 +30°C° 0 mm 4 mps 743 mmHg 67%
    11:00 +33°C° 0 mm 4 mps 743 mmHg 61%
    12:00 +34°C° 0 mm 5 mps 742 mmHg 55%
    13:00 +35°C° 0.2 mm 4 mps 742 mmHg 52%
    14:00 +36°C° 0.2 mm 4 mps 741 mmHg 49%
    15:00 +36°C° 0.2 mm 3 mps 740 mmHg 46%
    16:00 +35°C° 0.6 mm 3 mps 740 mmHg 53%
    17:00 +33°C° 0.6 mm 3 mps 740 mmHg 59%
    18:00 +31°C° 0.6 mm 2 mps 740 mmHg 66%
    19:00 +30°C° 0.3 mm 3 mps 741 mmHg 70%
    20:00 +29°C° 0.3 mm 3 mps 741 mmHg 73%
    21:00 +29°C° 0.3 mm 3 mps 741 mmHg 77%
    22:00 +28°C° 0 mm 3 mps 741 mmHg 79%
    23:00 +28°C° 0 mm 3 mps 741 mmHg 82%

    19 July, Friday

    Time Temperature Precipitation Wind Pressure Humidity
    00:00 +27°C° 0 mm 4 mps 741 mmHg 84%
    01:00 +27°C° 0.6 mm 4 mps 741 mmHg 85%
    02:00 +27°C° 0.6 mm 3 mps 741 mmHg 86%
    03:00 +26°C° 0.6 mm 3 mps 741 mmHg 88%
    04:00 +26°C° 0.3 mm 3 mps 742 mmHg 88%
    05:00 +26°C° 0.3 mm 3 mps 742 mmHg 88%
    06:00 +26°C° 0.3 mm 3 mps 742 mmHg 89%
    07:00 +27°C° 0.1 mm 3 mps 743 mmHg 85%
    08:00 +28°C° 0.1 mm 4 mps 743 mmHg 82%
    09:00 +28°C° 0.1 mm 4 mps 743 mmHg 78%
    10:00 +29°C° 0 mm 4 mps 743 mmHg 73%
    11:00 +30°C° 0 mm 3 mps 743 mmHg 69%
    12:00 +31°C° 0 mm 3 mps 743 mmHg 64%
    13:00 +33°C° 0.1 mm 3 mps 742 mmHg 63%
    14:00 +33°C° 0.1 mm 3 mps 742 mmHg 62%
    15:00 +33°C° 0.1 mm 3 mps 741 mmHg 61%
    16:00 +33°C° 0 mm 3 mps 741 mmHg 62%
    17:00 +31°C° 0 mm 2 mps 741 mmHg 63%
    18:00 +31°C° 0 mm 2 mps 741 mmHg 65%
    19:00 +30°C° 0.1 mm 2 mps 741 mmHg 70%
    20:00 +29°C° 0.1 mm 3 mps 742 mmHg 75%
    21:00 +28°C° 0.1 mm 3 mps 742 mmHg 79%
    22:00 +27°C° 0 mm 3 mps 742 mmHg 81%
    23:00 +27°C° 0 mm 3 mps 743 mmHg 82%

    20 July, Saturday

    Time Temperature Precipitation Wind Pressure Humidity
    00:00 +27°C° 0 mm 3 mps 743 mmHg 84%
    01:00 +26°C° 0 mm 3 mps 743 mmHg 85%
    02:00 +26°C° 0 mm 3 mps 743 mmHg 86%
    03:00 +26°C° 0 mm 3 mps 743 mmHg 87%
    04:00 +26°C° 0 mm 3 mps 743 mmHg 87%
    05:00 +25°C° 0 mm 3 mps 743 mmHg 88%
    06:00 +25°C° 0 mm 3 mps 743 mmHg 89%
    07:00 +26°C° 0 mm 3 mps 743 mmHg 85%
    08:00 +27°C° 0 mm 4 mps 744 mmHg 82%
    09:00 +27°C° 0 mm 4 mps 745 mmHg 79%
    10:00 +28°C° 0 mm 4 mps 744 mmHg 74%
    11:00 +29°C° 0 mm 4 mps 744 mmHg 70%
    12:00 +30°C° 0 mm 4 mps 744 mmHg 66%
    13:00 +30°C° 0.4 mm 3 mps 743 mmHg 64%
    14:00 +31°C° 0.4 mm 2 mps 743 mmHg 62%
    15:00 +31°C° 0.4 mm 2 mps 742 mmHg 60%
    16:00 +31°C° 0.1 mm 2 mps 742 mmHg 62%
    17:00 +30°C° 0.1 mm 1 mps 741 mmHg 65%
    18:00 +30°C° 0.1 mm 1 mps 741 mmHg 67%
    19:00 +29°C° 0 mm 2 mps 742 mmHg 70%
    20:00 +28°C° 0 mm 2 mps 742 mmHg 73%
    21:00 +28°C° 0 mm 2 mps 742 mmHg 76%
    22:00 +27°C° 0 mm 2 mps 742 mmHg 77%
    23:00 +27°C° 0 mm 2 mps 742 mmHg 79%

    21 July, Sunday

    Time Temperature Precipitation Wind Pressure Humidity
    00:00 +27°C° 0 mm 2 mps 743 mmHg 81%
    01:00 +27°C° 0 mm 2 mps 742 mmHg 83%
    02:00 +26°C° 0 mm 1 mps 742 mmHg 84%
    03:00 +26°C° 0 mm 1 mps 742 mmHg 86%
    04:00 +26°C° 0 mm 1 mps 742 mmHg 87%
    05:00 +26°C° 0 mm 2 mps 742 mmHg 89%
    06:00 +25°C° 0 mm 2 mps 743 mmHg 90%
    07:00 +27°C° 0 mm 2 mps 743 mmHg 84%
    08:00 +28°C° 0 mm 3 mps 743 mmHg 79%
    09:00 +29°C° 0 mm 3 mps 744 mmHg 73%
    10:00 +30°C° 0 mm 4 mps 743 mmHg 67%
    11:00 +33°C° 0 mm 4 mps 743 mmHg 61%
    12:00 +34°C° 0 mm 5 mps 743 mmHg 54%
    13:00 +35°C° 0 mm 4 mps 742 mmHg 52%
    14:00 +35°C° 0 mm 4 mps 741 mmHg 49%
    15:00 +36°C° 0 mm 3 mps 740 mmHg 46%
    16:00 +35°C° 0.3 mm 3 mps 740 mmHg 51%
    17:00 +34°C° 0.3 mm 3 mps 740 mmHg 56%
    18:00 +31°C° 0.3 mm 3 mps 740 mmHg 61%
    19:00 +30°C° 2.7 mm 3 mps 741 mmHg 68%
    20:00 +29°C° 2.7 mm 3 mps 741 mmHg 75%
    21:00 +28°C° 2.7 mm 3 mps 741 mmHg 82%
    22:00 +27°C° 1.1 mm 3 mps 741 mmHg 83%
    23:00 +27°C° 1.1 mm 3 mps 741 mmHg 85%
    Show more